|
Cosmos 1300 Rocket - Orbit
|
Starry Hill Observatory;
22:50:07
| Home | Info | Passes |
|
View from above orbital plane
|
View from above satellite
|
Ground track
|
The orbit data is extracted from the following two-line orbital elements,
1 12786U 81082B 13140.85579333 .00000443 00000-0 50512-4 0 5719
2 12786 082.4887 289.6834 0019377 124.2827 036.6444 14.83768481714038
| Epoch (UTC): | 20 May 2013 20:32:20 |
| Eccentricity: | 0.0019377 |
| inclination: | 82.4887° |
| perigee height: | 604 km |
| apogee height: | 631 km |
| right ascension of ascending node: | 289.6834° |
| argument of perigee: | 124.2827° |
| revolutions per day: | 14.83768481 |
| mean anomaly at epoch: | 36.6444° |
| orbit number at epoch: | 71403 |
The dashed part of the orbit path shows where the satellite is in the earth's shadow,
|
|